TimeCST,TemperatureF,Dew PointF,Humidity,Sea Level PressureIn,VisibilityMPH,Wind Direction,Wind SpeedMPH,Gust SpeedMPH,PrecipitationIn,Events,Conditions,WindDirDegrees,DateUTC
12:15 AM,32.0,31.5,98,30.33,10.0,Calm,Calm,-,N/A,,Clear,0,2013-11-11 06:15:00
12:35 AM,32.4,32.0,99,30.32,10.0,Calm,Calm,-,N/A,,Clear,0,2013-11-11 06:35:00
12:55 AM,32.0,31.3,97,30.32,10.0,Calm,Calm,-,N/A,,Clear,0,2013-11-11 06:55:00
1:15 AM,32.4,32.0,99,30.31,10.0,Calm,Calm,-,N/A,,Clear,0,2013-11-11 07:15:00
1:35 AM,34.0,33.1,96,30.31,10.0,Calm,Calm,-,N/A,,Clear,0,2013-11-11 07:35:00
1:55 AM,33.6,32.9,97,30.31,10.0,Calm,Calm,-,N/A,,Clear,0,2013-11-11 07:55:00
2:15 AM,33.3,32.9,99,30.31,10.0,Calm,Calm,-,N/A,,Clear,0,2013-11-11 08:15:00
2:35 AM,34.0,33.8,99,30.30,10.0,Calm,Calm,-,N/A,,Clear,0,2013-11-11 08:35:00
2:55 AM,33.4,33.1,99,30.30,10.0,Calm,Calm,-,N/A,,Clear,0,2013-11-11 08:55:00
3:15 AM,33.8,33.4,99,30.30,10.0,Calm,Calm,-,N/A,,Clear,0,2013-11-11 09:15:00
3:35 AM,33.8,33.3,98,30.30,10.0,Calm,Calm,-,N/A,,Clear,0,2013-11-11 09:35:00
3:55 AM,32.9,32.5,99,30.29,10.0,Calm,Calm,-,N/A,,Clear,0,2013-11-11 09:55:00
4:15 AM,32.4,32.2,99,30.29,10.0,Calm,Calm,-,N/A,,Clear,0,2013-11-11 10:15:00
4:35 AM,32.4,32.4,100,30.29,7.0,Calm,Calm,-,N/A,,Clear,0,2013-11-11 10:35:00
4:55 AM,32.0,32.0,100,30.29,5.0,Calm,Calm,-,N/A,,Clear,0,2013-11-11 10:55:00
5:15 AM,32.0,32.0,100,30.29,7.0,Calm,Calm,-,N/A,,Clear,0,2013-11-11 11:15:00
5:35 AM,32.0,32.0,100,30.29,10.0,Calm,Calm,-,N/A,,Clear,0,2013-11-11 11:35:00
5:55 AM,31.6,31.6,100,30.29,10.0,Calm,Calm,-,N/A,,Clear,0,2013-11-11 11:55:00
6:15 AM,31.6,31.6,100,30.28,10.0,Calm,Calm,-,N/A,,Clear,0,2013-11-11 12:15:00
6:35 AM,32.0,32.0,100,30.29,10.0,Calm,Calm,-,N/A,,Clear,0,2013-11-11 12:35:00
6:55 AM,31.6,31.6,100,30.29,5.0,Calm,Calm,-,N/A,,Clear,0,2013-11-11 12:55:00
7:15 AM,32.0,32.0,100,30.30,7.0,Calm,Calm,-,N/A,,Clear,0,2013-11-11 13:15:00
7:35 AM,34.7,34.7,100,30.31,10.0,Calm,Calm,-,N/A,,Clear,0,2013-11-11 13:35:00
7:55 AM,38.8,36.5,91,30.30,10.0,Calm,Calm,-,N/A,,Scattered Clouds,0,2013-11-11 13:55:00
8:15 AM,41.5,36.9,83,30.30,10.0,Calm,Calm,-,N/A,,Scattered Clouds,0,2013-11-11 14:15:00
8:35 AM,45.0,36.5,72,30.29,10.0,SSW,3.5,-,N/A,,Clear,200,2013-11-11 14:35:00
8:55 AM,46.4,36.1,67,30.29,10.0,SSW,4.6,-,N/A,,Clear,210,2013-11-11 14:55:00
9:15 AM,49.8,37.8,63,30.28,10.0,SSW,3.5,-,N/A,,Clear,210,2013-11-11 15:15:00
9:35 AM,53.4,33.4,47,30.27,10.0,SSW,9.2,-,N/A,,Clear,200,2013-11-11 15:35:00
9:55 AM,55.6,33.3,43,30.27,10.0,SW,9.2,-,N/A,,Clear,220,2013-11-11 15:55:00
10:15 AM,56.7,30.9,38,30.27,10.0,SSW,9.2,-,N/A,,Scattered Clouds,210,2013-11-11 16:15:00
10:35 AM,57.2,30.9,37,30.26,10.0,SSW,9.2,-,N/A,,Mostly Cloudy,210,2013-11-11 16:35:00
10:55 AM,57.6,31.1,37,30.25,10.0,SW,10.4,-,N/A,,Overcast,230,2013-11-11 16:55:00
11:15 AM,57.4,31.1,37,30.25,10.0,SW,9.2,-,N/A,,Mostly Cloudy,220,2013-11-11 17:15:00
11:35 AM,58.1,32.4,38,30.24,10.0,SW,8.1,-,N/A,,Mostly Cloudy,220,2013-11-11 17:35:00
11:55 AM,58.5,32.0,37,30.23,10.0,SW,10.4,-,N/A,,Mostly Cloudy,230,2013-11-11 17:55:00
12:15 PM,59.9,32.0,35,30.22,10.0,WSW,9.2,-,N/A,,Scattered Clouds,250,2013-11-11 18:15:00
12:35 PM,60.4,32.2,35,30.21,10.0,SW,10.4,-,N/A,,Scattered Clouds,230,2013-11-11 18:35:00
12:55 PM,60.3,32.0,34,30.20,10.0,SW,10.4,-,N/A,,Scattered Clouds,230,2013-11-11 18:55:00
1:15 PM,60.8,32.0,34,30.19,10.0,WSW,10.4,-,N/A,,Mostly Cloudy,240,2013-11-11 19:15:00
1:35 PM,61.0,32.7,35,30.18,10.0,WSW,9.2,-,N/A,,Scattered Clouds,240,2013-11-11 19:35:00
1:55 PM,60.8,33.8,36,30.17,10.0,WSW,4.6,-,N/A,,Scattered Clouds,250,2013-11-11 19:55:00
2:15 PM,60.8,33.3,36,30.17,10.0,WSW,9.2,-,N/A,,Mostly Cloudy,240,2013-11-11 20:15:00
2:35 PM,60.3,32.5,35,30.16,10.0,SW,10.4,-,N/A,,Overcast,230,2013-11-11 20:35:00
2:55 PM,60.1,32.5,35,30.16,10.0,WSW,6.9,-,N/A,,Overcast,240,2013-11-11 20:55:00
3:15 PM,61.3,34.2,36,30.15,10.0,SW,8.1,-,N/A,,Mostly Cloudy,230,2013-11-11 21:15:00
3:35 PM,59.2,35.1,40,30.15,10.0,WSW,4.6,-,N/A,,Scattered Clouds,240,2013-11-11 21:35:00
3:55 PM,59.7,36.0,41,30.15,10.0,SW,3.5,-,N/A,,Mostly Cloudy,230,2013-11-11 21:55:00
4:15 PM,58.8,36.1,43,30.15,10.0,WSW,5.8,-,N/A,,Overcast,240,2013-11-11 22:15:00
4:35 PM,58.1,37.0,45,30.15,10.0,SW,3.5,-,N/A,,Overcast,230,2013-11-11 22:35:00
4:55 PM,56.8,37.4,48,30.15,10.0,Calm,Calm,-,N/A,,Overcast,0,2013-11-11 22:55:00
5:15 PM,56.5,36.5,47,30.15,10.0,SW,4.6,-,N/A,,Overcast,220,2013-11-11 23:15:00
5:35 PM,55.9,36.1,47,30.16,10.0,WSW,3.5,-,N/A,,Overcast,240,2013-11-11 23:35:00
5:55 PM,54.7,37.6,53,30.17,10.0,Calm,Calm,-,N/A,,Overcast,0,2013-11-11 23:55:00
6:15 PM,54.3,38.3,55,30.17,10.0,Calm,Calm,-,N/A,,Overcast,0,2013-11-12 00:15:00
6:35 PM,53.6,38.1,56,30.17,10.0,Calm,Calm,-,N/A,,Overcast,0,2013-11-12 00:35:00
6:55 PM,54.5,37.8,53,30.18,10.0,NNW,3.5,-,N/A,,Overcast,330,2013-11-12 00:55:00
7:15 PM,53.8,39.0,57,30.19,10.0,West,3.5,-,N/A,,Overcast,280,2013-11-12 01:15:00
7:35 PM,54.5,39.4,57,30.20,10.0,WNW,6.9,-,N/A,Rain,Light Rain,300,2013-11-12 01:35:00
7:55 PM,54.5,39.2,56,30.20,10.0,WNW,5.8,-,N/A,Rain,Light Rain,300,2013-11-12 01:55:00
8:15 PM,54.5,40.6,60,30.22,10.0,North,16.1,20.7,N/A,,Overcast,350,2013-11-12 02:15:00
8:35 PM,51.1,44.6,78,30.24,10.0,North,12.7,23.0,N/A,,Overcast,360,2013-11-12 02:35:00
8:55 PM,48.2,42.3,80,30.26,10.0,North,13.8,-,N/A,,Overcast,10,2013-11-12 02:55:00
9:15 PM,46.8,41.5,82,30.28,10.0,North,16.1,25.3,N/A,,Overcast,10,2013-11-12 03:15:00
9:35 PM,45.7,41.4,85,30.29,10.0,North,15.0,26.5,N/A,,Overcast,10,2013-11-12 03:35:00
9:55 PM,44.4,41.2,88,30.32,10.0,North,16.1,24.2,N/A,Rain,Light Rain,10,2013-11-12 03:55:00
10:15 PM,42.4,38.3,85,30.33,10.0,North,19.6,26.5,N/A,,Overcast,360,2013-11-12 04:15:00
10:35 PM,41.0,38.5,91,30.34,5.0,North,13.8,31.1,N/A,,Overcast,360,2013-11-12 04:35:00
10:55 PM,40.1,38.7,95,30.35,4.0,North,11.5,23.0,N/A,,Drizzle,360,2013-11-12 04:55:00
11:15 PM,39.4,38.3,96,30.37,5.0,North,16.1,23.0,N/A,Rain,Light Rain,350,2013-11-12 05:15:00
11:35 PM,38.8,37.4,95,30.38,10.0,North,16.1,25.3,N/A,,Light Drizzle,350,2013-11-12 05:35:00
11:55 PM,38.5,36.5,93,30.39,10.0,North,13.8,18.4,N/A,,Overcast,350,2013-11-12 05:55:00